Weather History for Rogers City, MI

Change the Weather History Date:

Friday, June 7, 2013

  Actual Average (KAPN) Record (KAPN)
Temperature  
Mean Temperature 52 °F 60 °F  
Max Temperature 65 °F 72 °F 94 °F (2011)
Min Temperature 40 °F 47 °F 31 °F (1948)
Degree Days  
Heating Degree Days 12 7  
Month to date heating degree days 52  
Since 1 June heating degree days 52  
Since 1 July heating degree days 8009  
Cooling Degree Days 0 1  
Month to date cooling degree days 7  
Year to date cooling degree days 20  
Since 1 June cooling degree days 7  
Growing Degree Days 2 (Base 50)    
Moisture  
Dew Point 45 °F    
Average Humidity 74    
Maximum Humidity 92    
Minimum Humidity 56    
Precipitation  
Precipitation 0.00 in 0.09 in 1.32 in (1971)
Month to date precipitation 0.61  
Year to date precipitation 10.51  
Sea Level Pressure  
Sea Level Pressure 29.97 in    
Wind  
Wind Speed 2 mph (ENE)    
Max Wind Speed 10 mph    
Max Gust Speed -    
Visibility 10 miles    
Events      
T = Trace of Precipitation, MM = Missing Value Source: NWS Daily Summary

Daily Weather History Graph

Daily Weather History Graph

Search for Another Location

Airport:

Trip Planner

Search our weather history database for the weather conditions in past years. The results will help you decide how hot, cold, wet, or windy it might be!

Date:

Astronomy

Jun. 07, 2013 Rise Set
Actual Time 5:47 AM EDT 9:21 PM EDT
Civil Twilight 5:10 AM EDT 9:58 PM EDT
Nautical Twilight 4:20 AM EDT 10:48 PM EDT
Astronomical Twilight 3:15 AM EDT 11:53 PM EDT
Moon 5:13 AM EDT (6/7) 8:31 PM EDT (6/7)
Length of Visible Light 16h 48m
Length of Day
15h 33m
Waning Crescent, 1% of the Moon is Illuminated
Jun 7
Waning Crescent
Jun 8
New
Jun 16
First Quarter
Jun 23
Full
Jun 30
Last Quarter

Hourly Weather History & Observations

Time (EDT) Temp. Windchill Dew Point Humidity Pressure Visibility Wind Dir Wind Speed Gust Speed Precip Events Conditions
12:14 AM 44.2 °F - 40.6 °F 87% 30.01 in 10.0 mi Calm Calm - N/A   Clear
12:27 AM 45.0 °F - 41.9 °F 89% 30.02 in 10.0 mi Calm Calm - N/A   Clear
12:56 AM 44.4 °F 42.9 °F 41.4 °F 89% 30.01 in 10.0 mi WSW 3.5 mph - N/A   Clear
1:15 AM 44.8 °F - 41.7 °F 89% 30.00 in 10.0 mi Calm Calm - N/A   Clear
1:35 AM 43.9 °F 42.3 °F 41.4 °F 91% 30.00 in 10.0 mi South 3.5 mph - N/A   Clear
1:55 AM 43.5 °F - 40.3 °F 88% 29.99 in 10.0 mi Calm Calm - N/A   Clear
2:15 AM 43.2 °F - 40.5 °F 90% 29.99 in 10.0 mi Calm Calm - N/A   Clear
2:35 AM 42.6 °F - 39.7 °F 90% 29.98 in 10.0 mi Calm Calm - N/A   Clear
2:55 AM 42.4 °F - 39.4 °F 89% 29.98 in 10.0 mi Calm Calm - N/A   Clear
3:15 AM 41.5 °F - 38.8 °F 90% 29.98 in 10.0 mi Calm Calm - N/A   Clear
3:35 AM 41.9 °F - 39.2 °F 90% 29.98 in 10.0 mi Calm Calm - N/A   Clear
3:53 AM 41.9 °F - 39.2 °F 90% 29.98 in 10.0 mi Calm Calm - N/A   Clear
4:14 AM 41.9 °F - 39.2 °F 90% 29.98 in 10.0 mi Calm Calm - N/A   Clear
4:35 AM 42.3 °F - 39.4 °F 90% 29.98 in 10.0 mi Calm Calm - N/A   Clear
4:55 AM 40.6 °F - 37.9 °F 90% 29.98 in 10.0 mi Calm Calm - N/A   Clear
5:14 AM 41.4 °F - 38.8 °F 91% 29.98 in 10.0 mi Calm Calm - N/A   Clear
5:35 AM 42.4 °F 40.7 °F 39.2 °F 88% 29.97 in 10.0 mi West 3.5 mph - N/A   Clear
5:54 AM 43.7 °F 41.1 °F 40.1 °F 87% 29.97 in 10.0 mi West 4.6 mph - N/A   Clear
6:15 AM 44.4 °F - 40.3 °F 85% 29.98 in 10.0 mi Calm Calm - N/A   Clear
6:35 AM 45.5 °F 43.2 °F 41.0 °F 84% 29.98 in 10.0 mi West 4.6 mph - N/A   Clear
6:54 AM 47.5 °F - 41.9 °F 81% 29.98 in 10.0 mi Calm Calm - N/A   Clear
7:15 AM 50.0 °F - 43.0 °F 77% 29.99 in 10.0 mi Calm Calm - N/A   Clear
7:34 AM 50.4 °F - 43.5 °F 77% 30.00 in 10.0 mi East 4.6 mph - N/A   Clear
7:55 AM 49.3 °F - 43.3 °F 80% 30.00 in 10.0 mi ENE 3.5 mph - N/A   Clear
8:15 AM 50.2 °F - 43.0 °F 76% 30.00 in 10.0 mi NE 3.5 mph - N/A   Clear
8:35 AM 51.6 °F - 43.5 °F 74% 30.00 in 10.0 mi Calm Calm - N/A   Clear
8:55 AM 54.0 °F - 43.3 °F 67% 30.00 in 10.0 mi ESE 3.5 mph - N/A   Clear
9:15 AM 56.5 °F - 44.2 °F 64% 30.01 in 10.0 mi Calm Calm - N/A   Clear
9:35 AM 57.6 °F - 45.5 °F 64% 30.01 in 10.0 mi ENE 5.8 mph - N/A   Clear
9:55 AM 58.1 °F - 45.9 °F 64% 30.01 in 10.0 mi ENE 8.1 mph - N/A   Clear
10:14 AM 57.2 °F - 45.5 °F 65% 30.01 in 10.0 mi ENE 10.4 mph - N/A   Clear
10:35 AM 57.6 °F - 45.9 °F 65% 30.01 in 10.0 mi East 9.2 mph - N/A   Clear
10:55 AM 57.7 °F - 46.6 °F 66% 30.01 in 10.0 mi East 5.8 mph - N/A   Clear
11:14 AM 57.7 °F - 46.4 °F 66% 30.01 in 10.0 mi NE 4.6 mph - N/A   Clear
11:35 AM 58.8 °F - 47.7 °F 66% 30.00 in 10.0 mi East 6.9 mph - N/A   Clear
11:55 AM 58.3 °F - 46.8 °F 66% 30.00 in 10.0 mi NE 4.6 mph - N/A   Clear
12:15 PM 58.5 °F - 46.4 °F 64% 30.00 in 10.0 mi NNE 4.6 mph - N/A   Clear
12:35 PM 59.2 °F - 46.9 °F 64% 30.00 in 5.0 mi NE 5.8 mph - N/A   Haze
12:55 PM 59.9 °F - 47.1 °F 63% 29.99 in 10.0 mi ENE 5.8 mph - N/A   Clear
1:15 PM 59.4 °F - 47.1 °F 64% 29.99 in 10.0 mi NE 5.8 mph - N/A   Clear
1:34 PM 59.7 °F - 47.1 °F 63% 29.99 in 10.0 mi NNE 4.6 mph - N/A   Clear
1:55 PM 60.3 °F - 47.3 °F 62% 29.98 in 10.0 mi NE 4.6 mph - N/A   Clear
2:15 PM 62.2 °F - 48.0 °F 60% 29.98 in 10.0 mi East 6.9 mph - N/A   Clear
2:34 PM 61.7 °F - 47.7 °F 60% 29.97 in 10.0 mi ENE 3.5 mph - N/A   Clear
2:55 PM 61.2 °F - 47.5 °F 61% 29.97 in 10.0 mi NE 4.6 mph - N/A   Scattered Clouds
3:15 PM 61.5 °F - 47.8 °F 61% 29.97 in 10.0 mi Calm Calm - N/A   Mostly Cloudy
3:35 PM 63.9 °F - 49.6 °F 60% 29.96 in 10.0 mi East 4.6 mph - N/A   Mostly Cloudy
3:55 PM 64.4 °F - 49.6 °F 59% 29.95 in 10.0 mi ENE 3.5 mph - N/A   Scattered Clouds
4:14 PM 64.9 °F - 49.6 °F 58% 29.94 in 10.0 mi ENE 5.8 mph - N/A   Scattered Clouds
4:35 PM 65.5 °F - 49.3 °F 56% 29.94 in 7.0 mi ENE 5.8 mph - N/A   Scattered Clouds
4:55 PM 65.1 °F - 49.6 °F 57% 29.93 in 10.0 mi ENE 5.8 mph - N/A   Scattered Clouds
5:14 PM 63.9 °F - 49.8 °F 60% 29.93 in 10.0 mi NE 4.6 mph - N/A   Clear
5:35 PM 64.4 °F - 50.9 °F 62% 29.93 in 10.0 mi NE 4.6 mph - N/A   Clear
5:55 PM 64.0 °F - 50.5 °F 61% 29.93 in 10.0 mi NNE 5.8 mph - N/A   Clear
6:14 PM 63.9 °F - 50.5 °F 62% 29.93 in 10.0 mi NE 4.6 mph - N/A   Clear
6:35 PM 62.1 °F - 49.8 °F 64% 29.93 in 10.0 mi NE 4.6 mph - N/A   Clear
6:55 PM 62.6 °F - 50.0 °F 63% 29.93 in 10.0 mi NE 4.6 mph - N/A   Clear
7:15 PM 62.8 °F - 50.4 °F 64% 29.93 in 10.0 mi NE 3.5 mph - N/A   Clear
7:35 PM 62.2 °F - 50.0 °F 64% 29.93 in 10.0 mi Calm Calm - N/A   Clear
7:54 PM 61.7 °F - 49.8 °F 65% 29.93 in 10.0 mi Calm Calm - N/A   Clear
8:15 PM 59.4 °F - 49.1 °F 69% 29.93 in 10.0 mi Calm Calm - N/A   Clear
8:35 PM 60.1 °F - 49.6 °F 68% 29.94 in 10.0 mi Calm Calm - N/A   Clear
8:54 PM 58.3 °F - 50.0 °F 74% 29.94 in 10.0 mi Calm Calm - N/A   Clear
9:15 PM 55.9 °F - 49.1 °F 78% 29.94 in 10.0 mi Calm Calm - N/A   Clear
9:35 PM 55.0 °F - 49.1 °F 80% 29.95 in 10.0 mi Calm Calm - N/A   Clear
9:55 PM 52.9 °F - 48.2 °F 84% 29.95 in 10.0 mi Calm Calm - N/A   Clear
10:15 PM 52.5 °F - 47.5 °F 83% 29.95 in 10.0 mi Calm Calm - N/A   Clear
10:35 PM 51.1 °F - 47.1 °F 86% 29.96 in 10.0 mi Calm Calm - N/A   Clear
10:55 PM 48.7 °F - 45.7 °F 89% 29.96 in 10.0 mi Calm Calm - N/A   Clear
11:15 PM 48.6 °F - 45.5 °F 89% 29.96 in 10.0 mi Calm Calm - N/A   Clear
11:34 PM 48.4 °F - 45.5 °F 90% 29.96 in 10.0 mi Calm Calm - N/A   Clear
11:55 PM 47.8 °F - 45.5 °F 92% 29.96 in 10.0 mi Calm Calm - N/A   Clear